Preview of NWS' New Version of Forecast
This preview is not operational and should not be used for support decisions.

Regional Weather Roundup (RWR)

Issued by National Weather Service (NWS)

                            
000
ASCA42 TJSJ 230110
RWRPR 
PUERTO RICO/U.S. VIRGIN ISLANDS HOURLY WEATHER ROUNDUP
NATIONAL WEATHER SERVICE SAN JUAN PR
900 PM AST FRI MAR 22 2019

PRZ001>002-007>008-010-230200-
PUERTO RICO
  
CITY           SKY/WX    TMP DP  RH WIND       PRES   REMARKS
SAN JUAN LMM   PTCLDY    79  68  69 E8        30.04R                  
AGUADILLA      LGT RAIN  73  72  94 SE6       30.04R                  
CEIBA          MOCLDY    79  68  69 E6        30.06R                  
$$

VIZ001>002-230200-
U.S. VIRGIN ISLANDS
  
CITY           SKY/WX    TMP DP  RH WIND       PRES   REMARKS
CHARLOTTE AMA  CLEAR     79  70  73 E10       30.04R                  
CHRISTIANSTED  PTCLDY    77  68  73 NE7       30.03                   
$$

HOURLY WEATHER ROUNDUP FOR THE NEWS MEDIA
  
CITY           SKY/WX    TMP DP  RH WIND       PRES   REMARKS
ORLANDO        FAIR      66  36  32 W10       30.06R                  
NEW YORK       FAIR      44  30  57 W21G30    29.50R                  
NEWARK         FAIR      43  28  55 W14G24    29.51R                  
CHICAGO        FAIR      33  25  72 NE9       30.22S WCI  25          
HARTFORD       CLOUDY    42  35  76 W22G28    29.22R                  
BOSTON         CLOUDY    42  30  62 W17G33    29.17R                  
DALLAS         CLOUDY    73  44  35 SE10      30.05R                  
PHILADELPHIA   MOCLDY    44  30  57 NW16G35   29.63R                  
LOS ANGELES    FAIR      60  50  69 W14       30.13S                  
WASHINGTON DC  FAIR      41  22  46 NW24G32   29.81R